When you browse on this site, cookies collect data to enhance your experience and personalize the content and advertising you see.
Visit our Privacy Policy to learn more. By continuing to use the site, you agree to this use of cookies and data.
  • In Belgien
  • Länderverzeichnis
  • Für 7 Tage
  • Wassertemperatur
  • Satellitenkarten
  • Wetterkarte
  • Widgets
  • user-avatar
    Anmelden

    Stündliche Wetter Shkoder

    Heute, 24 Januar, Donnerstag

    Zeit Temperatur Niederschläge Wind Luftdruck Luftfeuchtigkeit
    00:00 +6°C° 0.9 mm 1 m/S 722 mmHg 90%
    01:00 +6°C° 0.9 mm 1 m/S 722 mmHg 91%
    02:00 +6°C° 0.3 mm 1 m/S 722 mmHg 93%
    03:00 +6°C° 0.3 mm 1 m/S 723 mmHg 95%
    04:00 +6°C° 0.3 mm 1 m/S 723 mmHg 96%
    05:00 +6°C° 0.1 mm 1 m/S 723 mmHg 96%
    06:00 +6°C° 0.1 mm 1 m/S 723 mmHg 95%
    07:00 +6°C° 0.1 mm 1 m/S 724 mmHg 95%
    08:00 +6°C° 0 mm 1 m/S 724 mmHg 90%
    09:00 +7°C° 0 mm 1 m/S 724 mmHg 86%
    10:00 +8°C° 0 mm 1 m/S 725 mmHg 81%
    11:00 +8°C° 0 mm 1 m/S 724 mmHg 78%
    12:00 +8°C° 0 mm 2 m/S 724 mmHg 74%
    13:00 +9°C° 0 mm 2 m/S 724 mmHg 70%
    14:00 +8°C° 0 mm 2 m/S 725 mmHg 72%
    15:00 +8°C° 0 mm 2 m/S 725 mmHg 74%
    16:00 +8°C° 0 mm 2 m/S 725 mmHg 76%
    17:00 +7°C° 0 mm 3 m/S 725 mmHg 77%
    18:00 +5°C° 0 mm 4 m/S 725 mmHg 77%
    19:00 +4°C° 0 mm 4 m/S 725 mmHg 77%
    20:00 +3°C° 0 mm 5 m/S 725 mmHg 76%
    21:00 +2°C° 0 mm 5 m/S 725 mmHg 74%
    22:00 +2°C° 0 mm 5 m/S 725 mmHg 73%
    23:00 +2°C° 0.1 mm 6 m/S 725 mmHg 72%

    Morgen, 25 Januar, Freitag

    Zeit Temperatur Niederschläge Wind Luftdruck Luftfeuchtigkeit
    00:00 +2°C° 0.1 mm 6 m/S 725 mmHg 71%
    01:00 +2°C° 0.1 mm 7 m/S 725 mmHg 71%
    02:00 +2°C° 0.3 mm 6 m/S 725 mmHg 72%
    03:00 +2°C° 0.3 mm 5 m/S 725 mmHg 73%
    04:00 +2°C° 0.3 mm 5 m/S 725 mmHg 74%
    05:00 +2°C° 0.4 mm 5 m/S 725 mmHg 75%
    06:00 +2°C° 0.4 mm 5 m/S 725 mmHg 76%
    07:00 +3°C° 0.4 mm 4 m/S 725 mmHg 77%
    08:00 +3°C° 0.2 mm 4 m/S 725 mmHg 75%
    09:00 +4°C° 0.2 mm 4 m/S 725 mmHg 73%
    10:00 +4°C° 0.2 mm 4 m/S 725 mmHg 72%
    11:00 +4°C° 0.1 mm 4 m/S 725 mmHg 72%
    12:00 +5°C° 0.1 mm 4 m/S 725 mmHg 72%
    13:00 +5°C° 0.1 mm 4 m/S 725 mmHg 72%
    14:00 +5°C° 0 mm 4 m/S 725 mmHg 72%
    15:00 +4°C° 0 mm 4 m/S 725 mmHg 72%
    16:00 +4°C° 0 mm 3 m/S 725 mmHg 72%
    17:00 +4°C° 0.1 mm 3 m/S 725 mmHg 73%
    18:00 +3°C° 0.1 mm 3 m/S 725 mmHg 74%
    19:00 +2°C° 0.1 mm 3 m/S 726 mmHg 75%
    20:00 +2°C° 0.2 mm 3 m/S 726 mmHg 75%
    21:00 +2°C° 0.2 mm 3 m/S 726 mmHg 74%
    22:00 +2°C° 0.2 mm 3 m/S 726 mmHg 74%
    23:00 +2°C° 0 mm 3 m/S 727 mmHg 74%

    übermorgen, 26 Januar, Samstag

    Zeit Temperatur Niederschläge Wind Luftdruck Luftfeuchtigkeit
    00:00 +2°C° 0 mm 3 m/S 727 mmHg 74%
    01:00 +2°C° 0 mm 3 m/S 727 mmHg 73%
    02:00 +2°C° 0 mm 3 m/S 727 mmHg 73%
    03:00 +2°C° 0 mm 3 m/S 728 mmHg 72%
    04:00 +1°C° 0 mm 4 m/S 728 mmHg 72%
    05:00 +1°C° 0 mm 4 m/S 729 mmHg 72%
    06:00 0°C° 0 mm 4 m/S 729 mmHg 72%
    07:00 0°C° 0 mm 4 m/S 730 mmHg 71%
    08:00 +3°C° 0 mm 4 m/S 730 mmHg 69%
    09:00 +4°C° 0 mm 4 m/S 731 mmHg 66%
    10:00 +5°C° 0 mm 4 m/S 732 mmHg 63%
    11:00 +6°C° 0 mm 4 m/S 732 mmHg 62%
    12:00 +6°C° 0 mm 4 m/S 732 mmHg 62%
    13:00 +7°C° 0 mm 4 m/S 732 mmHg 61%
    14:00 +6°C° 0 mm 4 m/S 733 mmHg 63%
    15:00 +6°C° 0 mm 4 m/S 733 mmHg 65%
    16:00 +5°C° 0 mm 4 m/S 733 mmHg 67%
    17:00 +4°C° 0 mm 4 m/S 734 mmHg 68%
    18:00 +4°C° 0 mm 4 m/S 734 mmHg 70%
    19:00 +3°C° 0 mm 4 m/S 735 mmHg 72%
    20:00 +3°C° 0 mm 4 m/S 735 mmHg 71%
    21:00 +1°C° 0 mm 4 m/S 735 mmHg 71%
    22:00 +1°C° 0 mm 4 m/S 736 mmHg 71%
    23:00 +1°C° 0 mm 4 m/S 736 mmHg 71%

    27 Januar, Sonntag

    Zeit Temperatur Niederschläge Wind Luftdruck Luftfeuchtigkeit
    00:00 +1°C° 0 mm 4 m/S 736 mmHg 71%
    01:00 +1°C° 0 mm 4 m/S 736 mmHg 71%
    02:00 +2°C° 0 mm 3 m/S 736 mmHg 72%
    03:00 +2°C° 0 mm 3 m/S 735 mmHg 73%
    04:00 +2°C° 0 mm 3 m/S 735 mmHg 73%
    05:00 +2°C° 0 mm 3 m/S 735 mmHg 73%
    06:00 +1°C° 0 mm 3 m/S 735 mmHg 73%
    07:00 +1°C° 0 mm 3 m/S 736 mmHg 73%
    08:00 +4°C° 0 mm 2 m/S 735 mmHg 70%
    09:00 +6°C° 0 mm 2 m/S 735 mmHg 66%
    10:00 +7°C° 0 mm 2 m/S 735 mmHg 63%
    11:00 +9°C° 0 mm 1 m/S 735 mmHg 61%
    12:00 +10°C° 0 mm 1 m/S 734 mmHg 59%
    13:00 +10°C° 0 mm 0 m/S 734 mmHg 57%
    14:00 +9°C° 0 mm 0 m/S 734 mmHg 61%
    15:00 +10°C° 0 mm 1 m/S 734 mmHg 64%
    16:00 +9°C° 0 mm 1 m/S 734 mmHg 68%
    17:00 +8°C° 0 mm 1 m/S 734 mmHg 70%
    18:00 +7°C° 0 mm 1 m/S 734 mmHg 72%
    19:00 +6°C° 0 mm 1 m/S 734 mmHg 74%
    20:00 +6°C° 0 mm 1 m/S 734 mmHg 74%
    21:00 +6°C° 0 mm 1 m/S 734 mmHg 74%
    22:00 +5°C° 0 mm 1 m/S 734 mmHg 75%
    23:00 +5°C° 0 mm 1 m/S 734 mmHg 75%

    28 Januar, Montag

    Zeit Temperatur Niederschläge Wind Luftdruck Luftfeuchtigkeit
    00:00 +5°C° 0 mm 1 m/S 734 mmHg 75%
    01:00 +5°C° 0 mm 1 m/S 734 mmHg 76%
    02:00 +5°C° 0 mm 1 m/S 734 mmHg 76%
    03:00 +5°C° 0 mm 1 m/S 734 mmHg 77%
    04:00 +5°C° 0 mm 1 m/S 733 mmHg 78%
    05:00 +5°C° 0 mm 1 m/S 733 mmHg 78%
    06:00 +4°C° 0 mm 2 m/S 733 mmHg 79%
    07:00 +4°C° 0 mm 2 m/S 733 mmHg 79%
    08:00 +5°C° 0 mm 2 m/S 733 mmHg 78%
    09:00 +6°C° 0 mm 2 m/S 733 mmHg 76%
    10:00 +8°C° 0 mm 2 m/S 733 mmHg 75%
    11:00 +8°C° 0.1 mm 2 m/S 732 mmHg 75%
    12:00 +8°C° 0.1 mm 2 m/S 732 mmHg 76%
    13:00 +9°C° 0.1 mm 2 m/S 731 mmHg 76%
    14:00 +9°C° 0.5 mm 3 m/S 731 mmHg 79%
    15:00 +8°C° 0.5 mm 3 m/S 731 mmHg 81%
    16:00 +7°C° 0.5 mm 4 m/S 731 mmHg 84%
    17:00 +7°C° 0.6 mm 4 m/S 730 mmHg 85%
    18:00 +7°C° 0.6 mm 4 m/S 730 mmHg 85%
    19:00 +7°C° 0.6 mm 4 m/S 730 mmHg 85%
    20:00 +6°C° 1.9 mm 4 m/S 730 mmHg 87%
    21:00 +6°C° 1.9 mm 4 m/S 731 mmHg 88%
    22:00 +6°C° 1.9 mm 4 m/S 731 mmHg 89%
    23:00 +6°C° 1.9 mm 4 m/S 731 mmHg 90%

    29 Januar, Dienstag

    Zeit Temperatur Niederschläge Wind Luftdruck Luftfeuchtigkeit
    00:00 +7°C° 1.9 mm 3 m/S 731 mmHg 91%
    01:00 +7°C° 1.9 mm 3 m/S 731 mmHg 92%
    02:00 +7°C° 1.4 mm 3 m/S 730 mmHg 93%
    03:00 +7°C° 1.4 mm 2 m/S 730 mmHg 93%
    04:00 +7°C° 1.4 mm 2 m/S 730 mmHg 94%
    05:00 +7°C° 0.7 mm 2 m/S 730 mmHg 93%
    06:00 +6°C° 0.7 mm 2 m/S 730 mmHg 92%
    07:00 +6°C° 0.7 mm 2 m/S 730 mmHg 91%
    08:00 +7°C° 0.5 mm 2 m/S 731 mmHg 88%
    09:00 +7°C° 0.5 mm 2 m/S 731 mmHg 84%
    10:00 +8°C° 0.5 mm 2 m/S 731 mmHg 81%
    11:00 +8°C° 0.5 mm 3 m/S 731 mmHg 79%
    12:00 +8°C° 0.5 mm 3 m/S 731 mmHg 78%
    13:00 +8°C° 0.5 mm 3 m/S 731 mmHg 77%
    14:00 +8°C° 0.6 mm 3 m/S 731 mmHg 78%
    15:00 +8°C° 0.6 mm 2 m/S 731 mmHg 80%
    16:00 +7°C° 0.6 mm 2 m/S 731 mmHg 82%
    17:00 +7°C° 0.2 mm 2 m/S 732 mmHg 84%
    18:00 +6°C° 0.2 mm 2 m/S 732 mmHg 85%
    19:00 +7°C° 0.2 mm 1 m/S 732 mmHg 86%
    20:00 +7°C° 0 mm 1 m/S 732 mmHg 86%
    21:00 +6°C° 0 mm 1 m/S 732 mmHg 87%
    22:00 +6°C° 0 mm 1 m/S 732 mmHg 87%
    23:00 +6°C° 0.5 mm 1 m/S 732 mmHg 86%
    Mehr zeigen